User: anonymous   Login
Location: Wawayanda State Park
(41.1833°N, 74.4333°W)
Time: 14:06:33
(UTC-04:00)
Language:

RESURS DK-1 - Orbit

View from above orbital plane
View from above orbital plane
View from above satellite
View from above satellite

Ground track
Ground track

The orbit data is extracted from the following two-line orbital elements,

1 29228U 06021A   15090.47953997  .00001213  00000-0  10139-3 0  9994
2 29228 069.9401 354.5688 0004470 182.9885 229.6405 15.01353042486683
Epoch (UTC): 31 March 2015 11:30:32
Eccentricity: 0.0004470
inclination: 69.9401°
perigee height: 559 km
apogee height: 566 km
right ascension of ascending node: 354.5688°
argument of perigee: 182.9885°
revolutions per day: 15.01353042
mean anomaly at epoch: 229.6405°
orbit number at epoch: 48668

The dashed part of the orbit path shows where the satellite is in the earth's shadow,  

DLR